"Pseudo-MPEC" for C14WJ55

Created 2025 Jul 7 23:35:02 UT using Find_Orb

Click here for an explanation of pseudo-MPECs

 
 Astrometry: 
     C14WJ55* C2025 06 30.26281014 50 57.894+11 11 57.19   ~6U7K 21.75GVNEOCPV00
     C14WJ55  C2025 06 30.26841214 51 00.644+11 11 59.57   ~6U7K 21.79GVNEOCPV00
     C14WJ55  C2025 06 30.27399314 51 03.380+11 12 02.12   ~6U7K 22.20GVNEOCPV00
     C14WJ55  C2025 06 30.27957214 51 06.102+11 12 04.46   ~6U7K 21.63GVNEOCPV00
     C14WJ55 mC2025 06 30.30587714 51 19.008+11 12 14.98   ~6U7Z 21.74GVNEOCPV00
     C14WJ55 mC2025 06 30.30667114 51 19.390+11 12 15.12   ~6U7Z 22.14GVNEOCPV00
     C14WJ55 mC2025 06 30.30746614 51 19.793+11 12 15.62   ~6U7Z 21.96GVNEOCPV00
     C14WJ55 mC2025 06 30.30826014 51 20.178+11 12 15.80   ~6U7Z 22.15GVNEOCPV00
     C14WJ55 KC2025 07 01.22319014 58 42.020+11 18 25.99   ~7165 21.85GVNEOCPV06
     C14WJ55 KC2025 07 01.22887314 58 44.425+11 18 27.68   ~7165 22.22GVNEOCPV06
     C14WJ55 KC2025 07 01.23455314 58 46.826+11 18 29.34   ~7165 21.81GVNEOCPV06

Station data:
(V00) Kitt Peak-Bok  (N31.963125 W111.600190)  US/Arizona.  Observers T. A.
   Pruyne, B. M. Africano, E. J. Christensen, G. A. Farneth, D. C. Fuls, A.
   R. Gibbs, A. D. Grauer, H. Gröller, J. A. Johnson, R. A. Kowalski, S. M.
   Larson, G. J. Leonard, D. Rankin, R. L. Seaman, F. C. Shelly, K. W.
   Wierzchoś. 2.25-m reflector + 4x4K mosaic CCD.
(V06) Catalina Sky Survey-Kuiper  (N32.416871 W110.732550)  US/Arizona.
   Observers T. A. Pruyne, B. M. Africano, E. J. Christensen, G. A. Farneth,
   D. C. Fuls, A. R. Gibbs, A. D. Grauer, H. Gröller, J. A. Johnson, R. A.
   Kowalski, S. M. Larson, G. J. Leonard, D. Rankin, R. L. Seaman, F. C.
   Shelly, K. W. Wierzchoś. 1.55-m reflector + CCD.

Orbital elements:  C14WJ55
   Perihelion 2025 Apr 2.89051 +/- 0.977 TT = 21:22:20 (JD 2460768.39051)
Epoch 2025 Jul  1.0 TT = JDT 2460857.5   Earth MOID: 0.0031   Ve: 0.0630
M 102.99314841 +/- 3.3              (J2000 ecliptic)             AutoNEOCP
n   1.15580454 +/- 0.0281           Peri.  231.14661 +/- 2.5
a   0.89924862 +/- 0.0146           Node   266.79519 +/- 0.49
e   0.3588944 +/- 0.00703           Incl.   16.96696 +/- 0.50
P   0.853/311.465d         H 24.99  G  0.15   U 10.3
q 0.57651327 +/- 0.0127    Q 1.22198397 +/- 0.019
From 11 observations 2025 June 30-July 1 (23.3 hr); mean residual 0".10
Residuals in arcseconds: 
250630 V00  .14-  .25-    250630 V00  .00   .14+    250701 V06  .04+  .01+    
250630 V00  .05+  .20-    250630 V00  .12-  .03-    250701 V06  .02+  .00     
250630 V00  .15+  .06+    250630 V00  .05+  .15+    250701 V06  .06-  .02-    
250630 V00  .03+  .12+    250630 V00  .03-  .02+    

Ephemerides (geocentric):
Date (UTC) HH   RA             Dec           delta  r     elong  mag " sig PA
---- --------  ------------   ------------  ------ ------ -----  --- --------
2025 07 08 00  15 34 16.501   +11 25 37.01  .15220 1.0953 117.5 23.1  464  90
2025 07 08 01  15 34 25.744   +11 25 31.97  .15252 1.0955 117.5 23.1  468  90
2025 07 08 02  15 34 34.956   +11 25 26.87  .15283 1.0957 117.5 23.1  471  90
2025 07 08 03  15 34 44.136   +11 25 21.70  .15315 1.0959 117.5 23.1  475  90
2025 07 08 04  15 34 53.285   +11 25 16.48  .15346 1.0960 117.5 23.1  478  90
2025 07 08 05  15 35 02.404   +11 25 11.20  .15378 1.0962 117.5 23.1  482  90
2025 07 08 06  15 35 11.492   +11 25 05.86  .15409 1.0964 117.5 23.1  485  90
2025 07 08 07  15 35 20.550   +11 25 00.46  .15440 1.0966 117.5 23.1  488  90
2025 07 08 08  15 35 29.577   +11 24 55.01  .15472 1.0968 117.5 23.2  492  90
2025 07 08 09  15 35 38.575   +11 24 49.49  .15503 1.0969 117.5 23.2  495  90
2025 07 08 10  15 35 47.542   +11 24 43.92  .15535 1.0971 117.5 23.2  499  90
2025 07 08 11  15 35 56.480   +11 24 38.29  .15566 1.0973 117.5 23.2  502  90
2025 07 08 12  15 36 05.389   +11 24 32.60  .15598 1.0975 117.5 23.2  506  90
2025 07 08 13  15 36 14.268   +11 24 26.86  .15629 1.0976 117.5 23.2  509  90
2025 07 08 14  15 36 23.118   +11 24 21.06  .15661 1.0978 117.5 23.2  512  90
2025 07 08 15  15 36 31.939   +11 24 15.21  .15692 1.0980 117.5 23.2  516  90
2025 07 08 16  15 36 40.732   +11 24 09.30  .15724 1.0982 117.5 23.2  519  90
2025 07 08 17  15 36 49.495   +11 24 03.33  .15755 1.0983 117.5 23.2  523  90
2025 07 08 18  15 36 58.231   +11 23 57.31  .15787 1.0985 117.5 23.2  526  90
2025 07 08 19  15 37 06.938   +11 23 51.23  .15819 1.0987 117.5 23.2  530  90
2025 07 08 20  15 37 15.617   +11 23 45.10  .15850 1.0989 117.5 23.2  533  90
2025 07 08 21  15 37 24.269   +11 23 38.92  .15882 1.0990 117.5 23.2  536  90
2025 07 08 22  15 37 32.892   +11 23 32.68  .15913 1.0992 117.5 23.2  540  90
2025 07 08 23  15 37 41.488   +11 23 26.39  .15945 1.0994 117.5 23.2  543  90
2025 07 09 00  15 37 50.057   +11 23 20.05  .15976 1.0996 117.5 23.2  547  90
2025 07 09 01  15 37 58.599   +11 23 13.65  .16008 1.0997 117.5 23.2  550  90
2025 07 09 02  15 38 07.113   +11 23 07.20  .16039 1.0999 117.5 23.2  553  90
2025 07 09 03  15 38 15.601   +11 23 00.69  .16071 1.1001 117.5 23.2  557  90
2025 07 09 04  15 38 24.062   +11 22 54.14  .16103 1.1002 117.5 23.2  560  90
2025 07 09 05  15 38 32.496   +11 22 47.53  .16134 1.1004 117.5 23.2  563  90
2025 07 09 06  15 38 40.905   +11 22 40.87  .16166 1.1006 117.5 23.2  567  90
2025 07 09 07  15 38 49.286   +11 22 34.16  .16197 1.1008 117.5 23.3  570  90
2025 07 09 08  15 38 57.642   +11 22 27.40  .16229 1.1009 117.5 23.3  574  90
2025 07 09 09  15 39 05.972   +11 22 20.59  .16260 1.1011 117.5 23.3  577  90
2025 07 09 10  15 39 14.277   +11 22 13.73  .16292 1.1013 117.5 23.3  580  90
2025 07 09 11  15 39 22.555   +11 22 06.81  .16324 1.1015 117.5 23.3  584  90
2025 07 09 12  15 39 30.808   +11 21 59.85  .16355 1.1016 117.5 23.3  587  90
2025 07 09 13  15 39 39.036   +11 21 52.84  .16387 1.1018 117.5 23.3  590  90
2025 07 09 14  15 39 47.239   +11 21 45.78  .16418 1.1020 117.5 23.3  594  90
2025 07 09 15  15 39 55.417   +11 21 38.67  .16450 1.1021 117.5 23.3  597  90
2025 07 09 16  15 40 03.570   +11 21 31.51  .16482 1.1023 117.5 23.3  600  90
2025 07 09 17  15 40 11.698   +11 21 24.30  .16513 1.1025 117.5 23.3  604  90
2025 07 09 18  15 40 19.802   +11 21 17.04  .16545 1.1027 117.5 23.3  607  90
2025 07 09 19  15 40 27.882   +11 21 09.73  .16577 1.1028 117.4 23.3  610  90
2025 07 09 20  15 40 35.937   +11 21 02.38  .16608 1.1030 117.4 23.3  614  90
2025 07 09 21  15 40 43.968   +11 20 54.98  .16640 1.1032 117.4 23.3  617  90
2025 07 09 22  15 40 51.975   +11 20 47.53  .16672 1.1033 117.4 23.3  620  90
2025 07 09 23  15 40 59.959   +11 20 40.03  .16703 1.1035 117.4 23.3  624  90